TimeCST,TemperatureF,Dew PointF,Humidity,Sea Level PressureIn,VisibilityMPH,Wind Direction,Wind SpeedMPH,Gust SpeedMPH,PrecipitationIn,Events,Conditions,WindDirDegrees,DateUTC
12:15 AM,44.4,39.4,82,29.90,10.0,South,11.5,-,N/A,,Clear,190,2012-11-22 06:15:00
12:35 AM,44.4,39.4,82,29.89,10.0,South,11.5,-,N/A,,Clear,190,2012-11-22 06:35:00
12:55 AM,44.4,39.2,82,29.89,10.0,South,9.2,-,N/A,,Clear,190,2012-11-22 06:55:00
1:15 AM,44.8,39.2,81,29.88,10.0,South,10.4,16.1,N/A,,Clear,190,2012-11-22 07:15:00
1:35 AM,44.8,39.2,81,29.88,10.0,South,11.5,-,N/A,,Clear,190,2012-11-22 07:35:00
1:55 AM,45.0,39.4,81,29.87,10.0,South,10.4,-,N/A,,Clear,190,2012-11-22 07:55:00
2:15 AM,45.0,39.2,80,29.86,10.0,South,9.2,-,N/A,,Clear,180,2012-11-22 08:15:00
2:35 AM,45.7,39.4,79,29.86,10.0,South,9.2,-,N/A,,Clear,180,2012-11-22 08:35:00
2:55 AM,45.9,39.4,78,29.84,10.0,South,10.4,-,N/A,,Clear,170,2012-11-22 08:55:00
3:15 AM,46.2,39.2,76,29.83,10.0,South,9.2,-,N/A,,Clear,180,2012-11-22 09:15:00
3:35 AM,46.4,39.2,76,29.81,10.0,South,10.4,-,N/A,,Clear,190,2012-11-22 09:35:00
3:55 AM,46.4,38.7,74,29.80,10.0,South,11.5,17.3,N/A,,Clear,190,2012-11-22 09:55:00
4:15 AM,46.0,38.5,75,29.80,10.0,South,11.5,-,N/A,,Clear,190,2012-11-22 10:15:00
4:35 AM,45.9,38.3,75,29.79,10.0,SSW,9.2,-,N/A,,Clear,200,2012-11-22 10:35:00
4:55 AM,45.5,37.9,75,29.79,10.0,SSW,8.1,-,N/A,,Clear,200,2012-11-22 10:55:00
5:15 AM,44.6,37.6,76,29.78,10.0,South,9.2,-,N/A,,Clear,190,2012-11-22 11:15:00
5:35 AM,44.8,37.6,76,29.78,10.0,South,11.5,-,N/A,,Clear,190,2012-11-22 11:35:00
5:55 AM,45.1,37.4,74,29.77,10.0,South,10.4,-,N/A,,Clear,180,2012-11-22 11:55:00
6:15 AM,45.1,36.9,73,29.77,10.0,South,10.4,-,N/A,,Clear,190,2012-11-22 12:15:00
6:35 AM,45.3,36.7,72,29.76,10.0,South,12.7,-,N/A,,Clear,190,2012-11-22 12:35:00
6:55 AM,45.1,36.3,71,29.76,10.0,South,10.4,-,N/A,,Clear,190,2012-11-22 12:55:00
7:15 AM,45.1,36.0,70,29.75,10.0,South,11.5,-,N/A,,Clear,190,2012-11-22 13:15:00
7:35 AM,46.4,36.1,67,29.75,10.0,South,11.5,-,N/A,,Clear,190,2012-11-22 13:35:00
7:55 AM,47.1,36.3,66,29.75,10.0,SSW,11.5,-,N/A,,Clear,200,2012-11-22 13:55:00
8:15 AM,48.0,36.7,65,29.74,10.0,South,12.7,-,N/A,,Clear,190,2012-11-22 14:15:00
8:35 AM,49.3,37.0,63,29.74,10.0,SSW,15.0,-,N/A,,Clear,200,2012-11-22 14:35:00
8:55 AM,50.5,37.4,61,29.73,10.0,South,13.8,24.2,N/A,,Clear,190,2012-11-22 14:55:00
9:15 AM,52.0,37.6,58,29.73,10.0,SSW,11.5,17.3,N/A,,Clear,200,2012-11-22 15:15:00
9:35 AM,53.2,37.8,56,29.72,10.0,South,17.3,23.0,N/A,,Clear,190,2012-11-22 15:35:00
9:55 AM,54.5,38.1,54,29.71,10.0,SSW,18.4,23.0,N/A,,Clear,200,2012-11-22 15:55:00
10:15 AM,55.8,38.5,52,29.71,10.0,South,16.1,24.2,N/A,,Clear,190,2012-11-22 16:15:00
10:35 AM,56.8,38.7,51,29.71,10.0,SSW,15.0,21.9,N/A,,Clear,200,2012-11-22 16:35:00
10:55 AM,57.4,39.0,50,29.69,10.0,SSW,20.7,25.3,N/A,,Clear,210,2012-11-22 16:55:00
11:15 AM,57.7,39.2,50,29.69,10.0,SW,16.1,25.3,N/A,,Clear,220,2012-11-22 17:15:00
11:35 AM,58.3,39.4,49,29.68,10.0,SSW,18.4,26.5,N/A,,Clear,210,2012-11-22 17:35:00
11:55 AM,59.0,39.7,49,29.66,10.0,SW,16.1,24.2,N/A,,Clear,220,2012-11-22 17:55:00
12:15 PM,58.3,39.6,50,29.66,10.0,SW,13.8,24.2,N/A,,Clear,220,2012-11-22 18:15:00
12:35 PM,59.0,39.9,49,29.65,10.0,SW,15.0,19.6,N/A,,Clear,220,2012-11-22 18:35:00
12:55 PM,59.2,40.1,49,29.64,10.0,SSW,13.8,19.6,N/A,,Clear,200,2012-11-22 18:55:00
1:15 PM,60.3,40.5,48,29.63,10.0,South,16.1,20.7,N/A,,Clear,190,2012-11-22 19:15:00
1:35 PM,59.9,40.5,49,29.63,10.0,South,11.5,-,N/A,,Clear,190,2012-11-22 19:35:00
1:55 PM,60.3,40.8,49,29.63,10.0,SW,6.9,-,N/A,,Clear,220,2012-11-22 19:55:00
2:15 PM,59.5,40.8,50,29.62,10.0,South,16.1,-,N/A,,Clear,190,2012-11-22 20:15:00
2:35 PM,59.0,40.6,51,29.62,10.0,South,13.8,18.4,N/A,,Clear,190,2012-11-22 20:35:00
2:55 PM,58.1,41.0,53,29.62,10.0,South,12.7,16.1,N/A,,Clear,190,2012-11-22 20:55:00
3:15 PM,58.3,41.2,53,29.62,10.0,SSW,13.8,18.4,N/A,,Clear,210,2012-11-22 21:15:00
3:35 PM,57.7,41.2,54,29.62,10.0,SSW,12.7,-,N/A,,Clear,210,2012-11-22 21:35:00
3:55 PM,57.2,41.2,55,29.63,10.0,SSW,10.4,16.1,N/A,,Clear,210,2012-11-22 21:55:00
4:15 PM,55.6,41.2,58,29.62,10.0,SSW,11.5,-,N/A,,Clear,210,2012-11-22 22:15:00
4:35 PM,55.0,41.4,60,29.63,10.0,SW,10.4,-,N/A,,Clear,220,2012-11-22 22:35:00
4:55 PM,54.9,41.5,61,29.63,10.0,SW,10.4,-,N/A,,Mostly Cloudy,220,2012-11-22 22:55:00
5:15 PM,54.5,41.7,62,29.63,10.0,SW,9.2,-,N/A,,Overcast,220,2012-11-22 23:15:00
5:35 PM,53.6,41.9,65,29.62,10.0,SW,8.1,-,N/A,,Mostly Cloudy,220,2012-11-22 23:35:00
5:55 PM,52.3,41.5,67,29.62,10.0,SW,4.6,-,N/A,,Mostly Cloudy,220,2012-11-22 23:55:00
6:15 PM,50.9,41.4,70,29.61,10.0,SW,5.8,-,N/A,,Mostly Cloudy,220,2012-11-23 00:15:00
6:35 PM,52.0,42.3,69,29.61,10.0,SW,5.8,-,N/A,,Overcast,220,2012-11-23 00:35:00
6:55 PM,54.3,42.3,64,29.61,10.0,WSW,10.4,19.6,N/A,,Overcast,250,2012-11-23 00:55:00
7:15 PM,52.2,38.8,60,29.64,10.0,West,15.0,26.5,N/A,,Mostly Cloudy,270,2012-11-23 01:15:00
7:55 PM,45.0,35.1,68,29.67,10.0,West,15.0,27.6,N/A,,Overcast,270,2012-11-23 01:55:00
8:15 PM,42.3,33.6,71,29.69,10.0,West,16.1,32.2,N/A,,Mostly Cloudy,260,2012-11-23 02:15:00
8:35 PM,40.6,32.5,73,29.70,10.0,West,16.1,29.9,N/A,,Overcast,280,2012-11-23 02:35:00
8:55 PM,38.8,31.3,74,29.71,10.0,West,21.9,32.2,N/A,,Overcast,260,2012-11-23 02:55:00
9:15 PM,37.6,29.3,72,29.72,10.0,West,19.6,33.4,N/A,,Overcast,270,2012-11-23 03:15:00
9:55 PM,34.7,29.8,82,29.73,10.0,West,13.8,25.3,N/A,,Overcast,280,2012-11-23 03:55:00
10:15 PM,33.1,27.5,80,29.74,10.0,West,16.1,34.5,N/A,,Overcast,260,2012-11-23 04:15:00
10:35 PM,32.2,26.6,80,29.75,10.0,West,19.6,32.2,N/A,,Overcast,270,2012-11-23 04:35:00
11:15 PM,31.8,23.9,73,29.75,10.0,West,18.4,35.7,N/A,,Overcast,270,2012-11-23 05:15:00
11:55 PM,30.2,23.4,76,29.76,10.0,West,17.3,26.5,N/A,,Overcast,270,2012-11-23 05:55:00